EW8354 Weather Reports


time (UTC)temp
C
wind
direction
speed
KPH
gust
KPH
rain 1hr
cm
rain 24hr
cm
rain mn
cm
humidity
%
barometer
mb
20260508153020 23 213 4.8 22.5 0.00 0.00 0.00 37 1007.1
20260508151517 24 290 8.0 20.9 0.00 0.00 0.00 36 1007.2
20260508150018 23 201 8.0 19.3 0.00 0.00 0.00 37 1007.5
20260508144513 24 205 9.7 20.9 0.00 0.00 0.00 37 1007.9
20260508143009 24 253 8.0 16.1 0.00 0.00 0.00 37 1008.2
20260508141507 23 192 9.7 22.5 0.00 0.00 0.00 38 1008.4
20260508140008 23 119 6.4 14.5 0.00 0.00 0.00 38 1008.6
20260508134508 23 151 6.4 14.5 0.00 0.00 0.00 37 1008.8
20260508133001 23 187 6.4 20.9 0.00 0.00 0.00 38 1009.0
20260508131502 23 233 6.4 14.5 0.00 0.00 0.00 38 1009.1
20260508130059 22 267 1.6 17.7 0.00 0.00 0.00 40 1009.3
20260508124559 22 180 4.8 17.7 0.00 0.00 0.00 39 1009.5
20260508123106 22 184 8.0 22.5 0.00 0.00 0.00 40 1009.6
20260508121556 21 181 6.4 14.5 0.00 0.00 0.00 43 1009.8
20260508120050 21 194 8.0 20.9 0.00 0.00 0.00 45 1009.9
20260508114552 21 189 4.8 14.5 0.00 0.00 0.00 46 1009.9
20260508113059 20 215 4.8 16.1 0.00 0.00 0.00 46 1010.0
20260508111548 20 221 8.0 20.9 0.00 0.00 0.00 46 1010.1
20260508110044 20 281 4.8 11.3 0.00 0.00 0.00 46 1010.1
20260508104543 20 276 8.0 12.9 0.00 0.00 0.00 47 1010.1
20260508103041 20 184 6.4 11.3 0.00 0.00 0.00 47 1010.3
20260508101539 20 210 9.7 19.3 0.00 0.00 0.00 47 1010.4
20260508100036 19 255 4.8 16.1 0.00 0.00 0.00 49 1010.5
20260508094544 18 271 9.7 16.1 0.00 0.00 0.00 49 1010.6
20260508093034 18 251 8.0 16.1 0.00 0.00 0.00 56 1010.8
20260508091533 18 204 9.7 20.9 0.00 0.00 0.00 57 1010.9
20260508090026 17 268 11.3 20.9 0.00 0.00 0.00 60 1010.7
20260508084521 17 211 9.7 22.5 0.00 0.00 0.00 62 1010.7
20260508083018 17 244 8.0 14.5 0.00 0.00 0.00 65 1010.7
20260508081534 16 259 8.0 19.3 0.00 0.00 0.00 70 1010.7
20260508080010 16 256 1.6 11.3 0.00 0.00 0.00 73 1010.6
20260508074506 15 213 4.8 11.3 0.00 0.00 0.00 74 1010.6
20260508073003 15 180 1.6 9.7 0.00 0.00 0.00 76 1010.4
20260508071600 15 221 1.6 9.7 0.00 0.00 0.00 76 1010.2
20260508070057 14 195 3.2 11.3 0.00 0.00 0.00 77 1010.2
20260508064554 13 182 3.2 9.7 0.00 0.00 0.00 78 1010.2
20260508063101 13 189 3.2 8.0 0.00 0.00 0.00 79 1010.1
20260508061551 13 186 4.8 9.7 0.00 0.00 0.00 79 1010.1
20260508060043 13 234 3.2 8.0 0.00 0.00 0.00 79 1009.9
20260508054543 13 208 1.6 9.7 0.00 0.00 0.00 78 1010.0
20260508053041 13 205 3.2 8.0 0.00 0.00 0.00 78 1009.7
20260508051537 13 235 0.0 4.8 0.00 0.00 0.00 78 1009.3
20260508050037 13 242 0.0 8.0 0.00 0.00 0.00 78 1009.1
20260508044537 13 240 3.2 12.9 0.00 0.00 0.00 77 1009.1
20260508043035 13 202 4.8 11.3 0.00 0.00 0.00 77 1009.0
20260508041535 13 194 3.2 9.7 0.00 0.00 0.00 77 1008.8
20260508040038 13 203 4.8 11.3 0.00 0.00 0.00 77 1008.9
20260508034532 13 199 3.2 11.3 0.00 0.00 0.00 77 1009.0
20260508033030 13 177 6.4 12.9 0.00 0.00 0.00 76 1008.9
20260508031528 14 178 4.8 12.9 0.00 0.00 0.00 76 1009.0
20260508030027 14 181 3.2 14.5 0.00 0.00 0.00 76 1009.3
20260508024541 14 195 6.4 12.9 0.00 0.00 0.00 75 1009.4
20260508023027 14 221 6.4 12.9 0.00 0.00 0.00 75 1009.3
20260508021521 14 212 6.4 16.1 0.00 0.00 0.00 75 1009.3
20260508020019 14 190 4.8 12.9 0.00 0.00 0.00 74 1009.3
20260508014520 15 196 4.8 12.9 0.00 0.00 0.00 74 1009.3
20260508013016 15 208 6.4 11.3 0.00 0.00 0.00 74 1009.6
20260508011515 15 192 6.4 11.3 0.00 0.00 0.00 74 1009.7
20260508010015 15 178 4.8 14.5 0.00 0.00 0.00 74 1009.6
20260508004511 15 192 6.4 11.3 0.00 0.00 0.00 74 1009.9
20260508003013 15 215 4.8 14.5 0.00 0.00 0.00 74 1009.9
20260508001508 15 204 4.8 14.5 0.00 0.00 0.00 73 1009.7
20260508000007 15 200 4.8 9.7 0.00 0.00 0.00 73 1009.8
20260507234507 15 203 4.8 11.3 0.00 0.00 0.00 72 1010.0
20260507233011 15 184 3.2 9.7 0.00 0.00 0.00 71 1009.8
20260507231503 15 194 4.8 11.3 0.00 0.00 0.00 71 1009.9
20260507230003 15 183 6.4 11.3 0.00 0.00 0.00 71 1010.1
20260507224610 15 180 4.8 11.3 0.00 0.00 0.00 70 1010.2
20260507223058 15 214 3.2 9.7 0.00 0.00 0.00 70 1010.5
20260507221555 15 182 4.8 11.3 0.00 0.00 0.00 69 1010.5
20260507220054 16 203 6.4 12.9 0.00 0.00 0.00 67 1010.5
20260507214604 16 232 3.2 8.0 0.00 0.00 0.00 65 1010.4
20260507213056 16 252 4.8 11.3 0.00 0.00 0.00 65 1010.5
20260507211555 16 269 3.2 6.4 0.00 0.00 0.00 64 1010.4
20260507210058 16 268 4.8 9.7 0.00 0.00 0.00 63 1010.1
20260507204548 16 257 4.8 11.3 0.00 0.00 0.00 62 1009.9
20260507203103 16 277 6.4 12.9 0.00 0.00 0.00 61 1009.7
20260507201556 16 278 6.4 12.9 0.00 0.00 0.00 61 1009.8
20260507194546 16 269 8.0 17.7 0.00 0.00 0.00 62 1009.7
20260507193049 17 261 9.7 20.9 0.00 0.00 0.00 61 1009.5
20260507191545 17 244 9.7 19.3 0.00 0.00 0.00 60 1009.5
20260507190048 18 251 11.3 20.9 0.00 0.00 0.00 58 1009.1
20260507184548 18 238 11.3 20.9 0.00 0.00 0.00 55 1008.9
20260507183047 18 246 12.9 24.1 0.00 0.00 0.00 52 1008.8
20260507181543 19 256 16.1 29.0 0.00 0.00 0.00 52 1008.6
20260507180047 20 242 14.5 25.7 0.00 0.00 0.00 50 1008.4
20260507174545 20 204 12.9 27.4 0.00 0.00 0.00 49 1008.3
20260507173042 20 246 16.1 29.0 0.00 0.00 0.00 47 1008.2
20260507171543 21 246 12.9 27.4 0.00 0.00 0.00 46 1008.1
20260507170040 21 253 11.3 25.7 0.00 0.00 0.00 44 1007.9
20260507164555 21 255 12.9 22.5 0.00 0.00 0.00 43 1007.8
20260507163040 22 259 12.9 22.5 0.00 0.00 0.00 41 1007.8
20260507161540 22 240 12.9 24.1 0.00 0.00 0.00 41 1007.6
20260507160040 22 207 16.1 27.4 0.00 0.00 0.00 41 1007.6
20260507154545 22 267 11.3 25.7 0.00 0.00 0.00 36 1007.6